E22ZMG-2 Weather Reports


time (UTC)temp
C
wind
direction
speed
KPH
gust
KPH
rain 1hr
cm
rain 24hr
cm
rain mn
cm
humidity
%
barometer
mb
20260508010712 26 0 0.0 0.0 0.00 0.00 0.00 78 929.0
20260508005648 26 0 0.0 0.0 0.00 0.00 0.00 77 929.0
20260508004624 26 0 0.0 0.0 0.00 0.00 0.00 78 929.0
20260508003559 25 0 0.0 0.0 0.00 0.00 0.00 78 929.0
20260508002535 25 0 0.0 0.0 0.00 0.00 0.00 79 928.0
20260508001511 25 0 0.0 0.0 0.00 0.00 0.00 78 928.0
20260508000449 25 0 0.0 0.0 0.00 0.00 0.00 79 928.0
20260507235422 25 0 0.0 0.0 0.00 0.00 0.00 78 928.0
20260507234359 25 0 0.0 0.0 0.00 0.00 0.00 79 928.0
20260507233334 25 0 0.0 0.0 0.00 0.00 0.00 77 928.0
20260507232309 25 0 0.0 0.0 0.00 0.00 0.00 78 928.0
20260507231245 25 0 0.0 0.0 0.00 0.00 0.00 77 928.0
20260507230221 25 0 0.0 0.0 0.00 0.00 0.00 78 927.0
20260507225157 25 0 0.0 0.0 0.00 0.00 0.00 77 927.0
20260507224133 25 0 0.0 0.0 0.00 0.00 0.00 77 927.0
20260507223109 25 0 0.0 0.0 0.00 0.00 0.00 77 927.0
20260507222045 26 0 0.0 0.0 0.00 0.00 0.00 77 927.0
20260507221021 26 0 0.0 0.0 0.00 0.00 0.00 77 927.0
20260507215957 25 0 0.0 0.0 0.00 0.00 0.00 77 927.0
20260507214932 26 0 0.0 0.0 0.00 0.00 0.00 76 927.0
20260507213908 26 0 0.0 0.0 0.00 0.00 0.00 76 927.0
20260507212844 26 0 0.0 0.0 0.00 0.00 0.00 76 927.0
20260507211820 25 0 0.0 0.0 0.00 0.00 0.00 77 927.0
20260507210756 25 0 0.0 0.0 0.00 0.00 0.00 77 927.0
20260507205732 26 0 0.0 0.0 0.00 0.00 0.00 75 927.0
20260507204708 26 0 0.0 0.0 0.00 0.00 0.00 74 927.0
20260507203643 26 0 0.0 0.0 0.00 0.00 0.00 75 927.0
20260507202619 25 0 0.0 0.0 0.00 0.00 0.00 77 926.0
20260507201555 26 0 0.0 0.0 0.00 0.00 0.00 76 926.0
20260507200531 25 0 0.0 0.0 0.00 0.00 0.00 77 926.0
20260507195507 26 0 0.0 0.0 0.00 0.00 0.00 75 926.0
20260507194443 26 0 0.0 0.0 0.00 0.00 0.00 75 926.0
20260507193418 26 0 0.0 0.0 0.00 0.00 0.00 75 926.0
20260507192355 26 0 0.0 0.0 0.00 0.00 0.00 74 927.0
20260507191331 26 0 0.0 0.0 0.00 0.00 0.00 75 927.0
20260507190307 26 0 0.0 0.0 0.00 0.00 0.00 74 927.0
20260507185243 26 0 0.0 0.0 0.00 0.00 0.00 74 927.0
20260507184219 26 0 0.0 0.0 0.00 0.00 0.00 73 927.0
20260507183155 26 0 0.0 0.0 0.00 0.00 0.00 74 927.0
20260507182131 26 0 0.0 0.0 0.00 0.00 0.00 74 927.0
20260507181107 26 0 0.0 0.0 0.00 0.00 0.00 74 928.0
20260507180043 26 0 0.0 0.0 0.00 0.00 0.00 75 928.0
20260507175018 27 0 0.0 0.0 0.00 0.00 0.00 73 928.0
20260507173954 27 0 0.0 0.0 0.00 0.00 0.00 73 928.0
20260507172930 27 0 0.0 0.0 0.00 0.00 0.00 73 928.0
20260507171906 27 0 0.0 0.0 0.00 0.00 0.00 73 928.0
20260507170842 26 0 0.0 0.0 0.00 0.00 0.00 74 928.0
20260507165818 27 0 0.0 0.0 0.00 0.00 0.00 73 928.0
20260507164754 27 0 0.0 0.0 0.00 0.00 0.00 74 928.0
20260507163729 27 0 0.0 0.0 0.00 0.00 0.00 72 928.0
20260507162706 27 0 0.0 0.0 0.00 0.00 0.00 72 928.0
20260507161641 27 0 0.0 0.0 0.00 0.00 0.00 71 928.0
20260507160617 26 0 0.0 0.0 0.00 0.00 0.00 73 928.0
20260507155553 27 0 0.0 0.0 0.00 0.00 0.00 72 928.0
20260507154529 27 0 0.0 0.0 0.00 0.00 0.00 71 928.0
20260507153505 27 0 0.0 0.0 0.00 0.00 0.00 72 929.0
20260507152441 27 0 0.0 0.0 0.00 0.00 0.00 72 929.0
20260507151417 28 0 0.0 0.0 0.00 0.00 0.00 72 929.0
20260507150353 28 0 0.0 0.0 0.00 0.00 0.00 71 928.0
20260507145328 28 0 0.0 0.0 0.00 0.00 0.00 69 928.0
20260507144304 28 0 0.0 0.0 0.00 0.00 0.00 67 928.0
20260507143240 28 0 0.0 0.0 0.00 0.00 0.00 68 927.0
20260507142217 27 0 0.0 0.0 0.00 0.00 0.00 69 927.0
20260507105210 30 0 0.0 0.0 0.00 0.00 0.00 66 922.0
20260507104145 30 0 0.0 0.0 0.00 0.00 0.00 66 922.0
20260507103121 30 0 0.0 0.0 0.00 0.00 0.00 65 922.0
20260507102056 29 0 0.0 0.0 0.00 0.00 0.00 64 922.0
20260507101032 30 0 0.0 0.0 0.00 0.00 0.00 61 922.0
20260507100006 29 0 0.0 0.0 0.00 0.00 0.00 62 923.0
20260507094941 29 0 0.0 0.0 0.00 0.00 0.00 62 923.0
20260507093916 29 0 0.0 0.0 0.00 0.00 0.00 62 923.0
20260507092852 28 0 0.0 0.0 0.00 0.00 0.00 62 923.0
20260507091827 29 0 0.0 0.0 0.00 0.00 0.00 62 923.0
20260507090802 28 0 0.0 0.0 0.00 0.00 0.00 62 924.0
20260507085738 28 0 0.0 0.0 0.00 0.00 0.00 62 924.0
20260507084714 28 0 0.0 0.0 0.00 0.00 0.00 63 925.0
20260507082152 26 0 0.0 0.0 0.00 0.00 0.00 66 926.0
20260507081128 30 0 0.0 0.0 0.00 0.00 0.00 62 925.0
20260507080104 32 0 0.0 0.0 0.00 0.00 0.00 57 924.0
20260507075040 33 0 0.0 0.0 0.00 0.00 0.00 51 923.0
20260507074016 33 0 0.0 0.0 0.00 0.00 0.00 51 923.0
20260507072951 34 0 0.0 0.0 0.00 0.00 0.00 50 923.0
20260507071926 33 0 0.0 0.0 0.00 0.00 0.00 51 923.0
20260507070901 33 0 0.0 0.0 0.00 0.00 0.00 53 924.0
20260507065837 33 0 0.0 0.0 0.00 0.00 0.00 52 924.0
20260507064813 33 0 0.0 0.0 0.00 0.00 0.00 51 924.0
20260507064110 33 0 0.0 0.0 0.00 0.00 0.00 51 924.0
20260507063045 33 0 0.0 0.0 0.00 0.00 0.00 50 924.0
20260507062021 33 0 0.0 0.0 0.00 0.00 0.00 50 924.0
20260507060955 34 0 0.0 0.0 0.00 0.00 0.00 49 925.0
20260507055931 33 0 0.0 0.0 0.00 0.00 0.00 49 925.0
20260507054905 33 0 0.0 0.0 0.00 0.00 0.00 50 925.0
20260507053841 33 0 0.0 0.0 0.00 0.00 0.00 50 925.0
20260507052816 33 0 0.0 0.0 0.00 0.00 0.00 50 926.0
20260507051751 33 0 0.0 0.0 0.00 0.00 0.00 52 926.0
20260507050727 33 0 0.0 0.0 0.00 0.00 0.00 52 926.0
20260507045702 33 0 0.0 0.0 0.00 0.00 0.00 51 926.0
20260507044638 33 0 0.0 0.0 0.00 0.00 0.00 52 926.0
20260507043614 33 0 0.0 0.0 0.00 0.00 0.00 52 926.0
20260507042549 33 0 0.0 0.0 0.00 0.00 0.00 52 926.0
20260507041525 32 0 0.0 0.0 0.00 0.00 0.00 52 926.0
20260507040500 32 0 0.0 0.0 0.00 0.00 0.00 51 926.0
20260507035436 32 0 0.0 0.0 0.00 0.00 0.00 51 926.0
20260507034412 32 0 0.0 0.0 0.00 0.00 0.00 53 926.0
20260507033348 32 0 0.0 0.0 0.00 0.00 0.00 54 927.0
20260507032324 31 0 0.0 0.0 0.00 0.00 0.00 56 927.0
20260507031300 31 0 0.0 0.0 0.00 0.00 0.00 56 927.0
20260507030235 31 0 0.0 0.0 0.00 0.00 0.00 54 927.0
20260507025210 31 0 0.0 0.0 0.00 0.00 0.00 54 927.0
20260507024146 31 0 0.0 0.0 0.00 0.00 0.00 56 927.0
20260507023120 31 0 0.0 0.0 0.00 0.00 0.00 60 927.0
20260507022056 30 0 0.0 0.0 0.00 0.00 0.00 56 927.0
20260507021031 30 0 0.0 0.0 0.00 0.00 0.00 57 927.0
20260507020006 30 0 0.0 0.0 0.00 0.00 0.00 59 927.0
20260507014942 30 0 0.0 0.0 0.00 0.00 0.00 59 927.0
20260507013918 30 0 0.0 0.0 0.00 0.00 0.00 59 927.0
20260507012853 29 0 0.0 0.0 0.00 0.00 0.00 61 927.0
20260507011828 28 0 0.0 0.0 0.00 0.00 0.00 63 927.0
20260507010803 28 0 0.0 0.0 0.00 0.00 0.00 64 927.0